94P/Russell 4 (2003)

Japanese version
Home page
Total 6,336 html files since Dec. 4, 1995
Updated on July 17, 2004

---------------------------------------------------------------------

* Profile

* Orbital Elements

Epoch 2003 Aug. 29.0 TT = JDT 2452880.5  
T 2003 Aug. 29.23185 TT                                 Muraoka 
q   2.2311477            (2000.0)            P               Q
n   0.14970413     Peri.   92.94105     -0.95518368     -0.27794791
a   3.5127469      Node    70.93801     +0.21021282     -0.87911631
e   0.3648424      Incl.    6.18485     +0.20840997     -0.38716854
P   6.58
From 139 observations 1984-1997, mean residual 0".75.

* Finding Charts

* Magnitudes Graph

        m1 = 4 + 5 log d + 30 log r

---------------------------------------------------------------------

The orbital elements are calculated by Kenji Muraoka.
The charts are made with StellaNavigator Ver.2.0 for Windows (AstroArts / ASCII).
The magnitudes graphs are made with Comet for Windows.

---------------------------------------------------------------------

Copyright(C) 1995-2008 Seiichi Yoshida (comet@aerith.net). All rights reserved.